PSLV R/B, 44862

Orbit data source: Space-Track

PSLV R/B, 44862 is space debris in LEO originally from a launch on Wed, 11 Dec 2019 UTC launched from the Sirharikota (SRI). Debris objects in space refer to the collection of defunct objects orbiting the Earth. Examples of debris include non-operational satellites, rocket bodies, and fragments generated from explosions, collisions, or faulty payload assembly.

Loading next visibility...
Identifier
44862, 2019-089L
Orbit
LEO
Country
Flag of ININ / IND
Related business
Manufacturer
VSSC/LPSC
Mission
Spacecraft
Bus & Motor
PS-4, Unknown motor
Mass
920 kg wet, 920 kg dry
Launch date (UTC)
2019-12-11 (6 years ago)
Launch vehicle
Unknown
Launch site
Sirharikota (SRI)
Object type
Payload
Rocket body
Debris
Shape & HBR
Cyl + Cyl + 2 Nozzle, 1.6 m
Radar Cross Section
3.727 m², Large (>1 m²)

Expand to show TLE details & history
Last TLE update: 9 hours ago

TLE from 9 hours ago
0 PSLV R/B
1 44862U 19089L   25342.60878670  .00026700  00000-0  60173-3 0  9994
2 44862  36.9679 192.4030 0020726 268.9874  90.8507 15.42187487332190
Epoch: 2025-12-08T14:36Z
TLE epoch observation values (Epoch: 2025-12-08T14:36:39.170Z)
Latitude
-0.00003°
Longitude
-104.36562°
Altitude
439.002 km
Speed
7.651 km/s
True Right ascension
12h 49m 36s
True Declination
0° 00' 00"
Sunlit
Object was in daylight at epoch
Visualization orbit readout
Latitude
Unknown
Longitude
Unknown
Altitude
Unknown
Speed
Unknown
Apparent Right ascension
Unknown
Apparent Declination
Unknown
Sunlit
N/A
Visualization observer readout
Local Sidereal Time
22:13:07
Azimuth
Unknown
Elevation
Unknown
Doppler factor
Unknown
Orbital elements
Apogee altitude
456.752 km
Perigee altitude
428.479 km
Semi-major axis
6,820.752 km
Eccentricity
0.00207
Inclination
36.9679°
RAAN
192.403°
Arg. of periapsis
268.9874°
True anomaly
91.08817°
Mean anomaly
90.8507°
Eccentric anomaly
90.96943°
Mean motion
3.85296 °/min
Orbital period
93.43 mins
BSTAR
0.00060173
Loading maneuver chart data...
Computing Atmospheric mass density...
Loading historical data...
Loading historical data...
Loading historical data...
Loading historical data...
Loading historical data...
Loading historical data...
Loading historical data...

Documentation

Showing up to 5 results
|